Location: ?
(35.3436°N, 139.3168°E)
Time: 20:56:07
(UTC+00:00)

ATLAS 3B R/B - Pass Details

Date: 29 October 2020
Orbit: 1014 x 1181 km, 63.8° (Epoch: 23 November)

Event Time Altitude Azimuth Distance (km) Brightness Sun altitude
Exits shadow 18:06:54 52° 70° (ENE) 1,248 3.2 -36.2°
Drops below altitude 10° 18:12:04 10° 38° (NE) 2,816 5.4 -35.2°
Sets 18:14:43 0° 35° (NE) 3,784 6.1 -34.6°
